Location: Tuttlingen
(47.9853°N, 8.8165°E)
Time: 08:43:28
(UTC+01:00)

ISS - Visible Passes

Search period start: 17 February 2019 00:00
Search period end: 27 February 2019 00:00
Orbit: 403 x 411 km, 51.6° (Epoch: 17 February)

Date Brightness Start Highest point End Pass type
(mag) Time Alt. Az. Time Alt. Az. Time Alt. Az.
23 Feb -1.2 06:33:29 10° S 06:35:58 20° SE 06:38:28 10° E visible
24 Feb -0.8 05:43:17 10° SSE 05:44:42 12° SE 05:46:08 10° ESE visible
25 Feb -2.6 06:26:10 10° SW 06:29:15 40° SSE 06:32:22 10° ENE visible
26 Feb -1.8 05:35:45 14° SSW 05:37:52 25° SE 05:40:38 10° E visible
